Location: Newark
(49.8969°N, 3.3422°E)
Time: 23:21:00
(UTC+00:00)

Vanguard 1 Rocket - Pass Details

Date: 21 January 2020
Orbit: 650 x 4226 km, 34.3° (Epoch: 19 February)

Event Time Altitude Azimuth Distance (km) Brightness Sun altitude
Rises 12:08:41 0° 246° (WSW) 4,970 11.5 20.1°
Reaches altitude 10° 12:11:31 10° 239° (WSW) 4,344 11.4 20.1°
Maximum altitude 12:23:33 46° 172° (S) 3,589 11.7 19.9°
Drops below altitude 10° 12:44:16 10° 109° (ESE) 7,202 12.1 19.4°
Sets 12:50:47 0° 105° (ESE) 8,424 12.3 19.2°
